This demonstration page uses our WeatherBlox Daily Observations layout. Learn more.

38.89511, -77.03637

Hourly Observations for December 27, 2016

Temp ( °F °C ) Dew Point ( °F °C ) Humidity (%) Winds ( mph kmh ) Pressure ( in mb ) Visibility ( mi km ) Precip ( " mm )
12:52 am 00:52 Cloudy 52 11.1 45 7.2 77 77 SSW 13 20 30.13 1020 10 16.0934 0 0
1:52 am 01:52 Cloudy 53 11.7 45 7.2 74 74 SSW 15 24 30.07 1018 10 16.0934 0 0
2:52 am 02:52 Mostly Cloudy 54 12.2 47 8.3 77 77 SSW 16 26 30.04 1017 10 16.0934 0 0
2:54 am 02:54 Mostly Cloudy 54 12 48 9 82 82 SSW 17 28 30.03 1017 10 16.0934 0 0
3:33 am 03:33 Mostly Cloudy 56 13.3 51 10.6 84 84 SSW 20 31 30.03 1017 10 16.0934 0 0
3:52 am 03:52 Mostly Cloudy 57 13.9 52 11.1 83 83 SSW 20 31 30.02 1017 10 16.0934 0 0
4:16 am 04:16 Mostly Cloudy 57 14 52 11 82 82 SSW 21 33 30.03 1017 10 16.0934 0 0
4:52 am 04:52 Mostly Cloudy 57 13.9 52 11.1 83 83 SSW 18 30 30 1016 10 16.0934 0 0
5:52 am 05:52 Mostly Cloudy 56 13.3 52 11.1 87 87 S 16 26 29.96 1015 10 16.0934 0 0
6:52 am 06:52 Mostly Cloudy 56 13.3 53 11.7 90 90 SSW 16 26 29.97 1015 10 16.0934 0 0.0254
7:52 am 07:52 Cloudy with Light Rain 56 13.3 53 11.7 90 90 SSW 12 19 29.96 1015 10 16.0934 0 0.0254
8:52 am 08:52 Cloudy 58 14.4 54 12.2 87 87 SSW 12 19 29.96 1015 10 16.0934 0 0.0254
9:52 am 09:52 Cloudy 59 15 54 12.2 83 83 SSW 14 22 29.94 1014 10 16.0934 0 0
10:52 am 10:52 Mostly Cloudy 60 15.6 54 12.2 80 80 SW 15 24 29.94 1014 10 16.0934 0 0
11:52 am 11:52 Cloudy 62 16.7 55 12.8 78 78 W 5 7 29.93 1014 10 16.0934 0 0
12:10 pm 12:10 Cloudy 63 17 55 13 77 77 W 8 13 29.94 1014 10 16.0934 0 0
12:38 pm 12:38 Cloudy 64 18 54 12 68 68 W 10 17 29.91 1013 10 16.0934 0 0
12:52 pm 12:52 Mostly Cloudy 65 18.3 53 11.7 66 66 WNW 8 13 29.9 1013 10 16.0934 0 0
12:58 pm 12:58 Mostly Cloudy 64 18 52 11 64 64 W 8 13 29.91 1013 10 16.0934 0 0
1:52 pm 13:52 Partly Cloudy 67 19.4 51 10.6 57 57 WSW 7 11 29.88 1012 10 16.0934 0 0
2:52 pm 14:52 Partly Cloudy 66 18.9 45 7.2 47 47 W 9 15 29.87 1011 10 16.0934 0 0
3:52 pm 15:52 Mostly Cloudy 59 15 52 11.1 78 78 S 9 15 29.88 1012 10 16.0934 0 0
4:52 pm 16:52 Mostly Cloudy 61 16.1 52 11.1 72 72 VRB 5 7 29.9 1013 10 16.0934 0 0
5:52 pm 17:52 Partly Cloudy 61 16.1 38 3.3 43 43 NW 7 11 29.92 1013 10 16.0934 0 0
6:52 pm 18:52 Partly Cloudy 57 13.9 37 2.8 47 47 N 6 9 29.94 1014 10 16.0934 0 0
7:52 pm 19:52 Partly Cloudy 57 13.9 36 2.2 45 45 NW 12 19 29.95 1014 10 16.0934 0 0
8:52 pm 20:52 Mostly Clear 56 13.3 36 2.2 47 47 NW 14 22 29.96 1015 10 16.0934 0 0
9:52 pm 21:52 Clear 54 12.2 35 1.7 49 49 NW 12 19 29.98 1015 10 16.0934 0 0
10:52 pm 22:52 Clear 53 11.7 33 0.6 47 47 NW 16 26 29.99 1016 10 16.0934 0 0
11:52 pm 23:52 Clear 51 10.6 31 -0.6 46 46 NW 13 20 30 1016 10 16.0934 0 0

Powered by AerisWeather